Helena, Arkansas, United States (72342)
Lat: 34.53N, Lon: 90.59W
Wx Zone: ARZ058
Local Info
Past Weather Observations for Friday, April 18, 2014

NOTE: This archive is for the closest National Weather Service station to Helena. Information may differ from the station used for current weather conditions.

Time Weather Temperature Dewpoint Humidity Pressure Winds Precip Visibility
23:55
Clear
55°F / 13°C 52°F / 11°C 88% 30.21 in
(1023 mb)
Calm - 10SM
23:35
Clear
55°F / 13°C 52°F / 11°C 88% 30.21 in
(1023 mb)
Calm - 10SM
23:15
Clear
59°F / 15°C 52°F / 11°C 77% 30.21 in
(1023 mb)
Calm - 10SM
22:55
Clear
59°F / 15°C 52°F / 11°C 77% 30.21 in
(1023 mb)
Calm - 10SM
22:35
Clear
57°F / 14°C 52°F / 11°C 82% 30.21 in
(1023 mb)
Calm - 10SM
22:15
Clear
57°F / 14°C 52°F / 11°C 82% 30.21 in
(1023 mb)
Calm - 10SM
21:55
Clear
59°F / 15°C 52°F / 11°C 77% 30.18 in
(1022 mb)
Calm - 10SM
21:35
Clear
59°F / 15°C 52°F / 11°C 77% 30.18 in
(1022 mb)
Calm - 10SM
21:15
Clear
61°F / 16°C 54°F / 12°C 77% 30.18 in
(1022 mb)
Calm - 10SM
20:55
Clear
61°F / 16°C 54°F / 12°C 77% 30.18 in
(1022 mb)
ESE 4.6 mph
(ESE 7 kph)
- 10SM
20:35
Partly Cloudy
61°F / 16°C 54°F / 12°C 77% 30.18 in
(1022 mb)
SE 4.6 mph
(SE 7 kph)
- 10SM
20:15
Mostly Cloudy
63°F / 17°C 54°F / 12°C 73% 30.18 in
(1022 mb)
SE 5.8 mph
(SE 9 kph)
- 10SM
19:55
Mostly Cloudy
63°F / 17°C 54°F / 12°C 73% 30.18 in
(1022 mb)
SE 5.8 mph
(SE 9 kph)
- 10SM
19:35
Mostly Cloudy
64°F / 18°C 54°F / 12°C 68% 30.18 in
(1022 mb)
SE 4.6 mph
(SE 7 kph)
- 10SM
19:15
Mostly Cloudy
66°F / 19°C 54°F / 12°C 64% 30.18 in
(1022 mb)
E 5.8 mph
(E 9 kph)
- 10SM
18:55
Mostly Cloudy
66°F / 19°C 54°F / 12°C 64% 30.15 in
(1021 mb)
ENE 5.8 mph
(ENE 9 kph)
- 10SM
18:35
Overcast
66°F / 19°C 55°F / 13°C 68% 30.15 in
(1021 mb)
ENE 4.6 mph
(ENE 7 kph)
- 10SM
18:15
Mostly Cloudy
68°F / 20°C 54°F / 12°C 60% 30.15 in
(1021 mb)
NE 3.5 mph
(NE 6 kph)
- 10SM
17:55
Mostly Cloudy
68°F / 20°C 54°F / 12°C 60% 30.15 in
(1021 mb)
ENE 5.8 mph
(ENE 9 kph)
- 10SM
17:35
Partly Cloudy
68°F / 20°C 52°F / 11°C 56% 30.15 in
(1021 mb)
NE 9.2 mph
(NE 15 kph)
- 10SM
17:15
Partly Cloudy
70°F / 21°C 52°F / 11°C 53% 30.15 in
(1021 mb)
NE 9.2 mph
(NE 15 kph)
- 10SM
16:55
Partly Cloudy
70°F / 21°C 52°F / 11°C 53% 30.15 in
(1021 mb)
NE 11.5 mph
(NE 19 kph)
- 10SM
16:35
Partly Cloudy
72°F / 22°C 50°F / 10°C 47% 30.15 in
(1021 mb)
ENE 10.4 mph
(ENE 17 kph)
- 10SM
16:15
Clear
70°F / 21°C 50°F / 10°C 50% 30.15 in
(1021 mb)
NNE 4.6 mph
(NNE 7 kph)
- 10SM
15:55
Clear
72°F / 22°C 50°F / 10°C 47% 30.15 in
(1021 mb)
NE 9.2 mph
(NE 15 kph)
- 10SM
15:35
Clear
72°F / 22°C 50°F / 10°C 47% 30.15 in
(1021 mb)
NE 8.1 mph
(NE 13 kph)
- 10SM
15:15
Clear
72°F / 22°C 50°F / 10°C 47% 30.15 in
(1021 mb)
NE 6.9 mph
(NE 11 kph)
- 10SM
14:55
Clear
72°F / 22°C 50°F / 10°C 47% 30.15 in
(1021 mb)
NNE 5.8 mph
(NNE 9 kph)
- 10SM
14:35
Clear
72°F / 22°C 52°F / 11°C 50% 30.18 in
(1022 mb)
NE 8.1 mph
(NE 13 kph)
- 10SM
14:15
Partly Cloudy
72°F / 22°C 50°F / 10°C 47% 30.18 in
(1022 mb)
NE 4.6 mph
(NE 7 kph)
- 10SM
13:55
Clear
70°F / 21°C 50°F / 10°C 50% 30.18 in
(1022 mb)
N 8.1 mph
(N 13 kph)
- 10SM
13:35
Clear
70°F / 21°C 48°F / 9°C 46% 30.21 in
(1023 mb)
NE 8.1 mph
(NE 13 kph)
- 10SM
13:15
Clear
70°F / 21°C 48°F / 9°C 46% 30.21 in
(1023 mb)
NNE 10.4 mph
(NNE 17 kph)
- 10SM
12:55
Clear
70°F / 21°C 50°F / 10°C 50% 30.21 in
(1023 mb)
N 9.2 mph
(N 15 kph)
- 10SM
12:35
Clear
68°F / 20°C 48°F / 9°C 49% 30.21 in
(1023 mb)
NNE 6.9 mph
(NNE 11 kph)
- 10SM
12:15
Clear
68°F / 20°C 50°F / 10°C 53% 30.21 in
(1023 mb)
N 5.8 mph
(N 9 kph)
- 10SM
11:55
Clear
68°F / 20°C 48°F / 9°C 49% 30.24 in
(1024 mb)
NE 6.9 mph
(NE 11 kph)
- 10SM
11:35
Clear
66°F / 19°C 46°F / 8°C 49% 30.24 in
(1024 mb)
NNE 8.1 mph
(NNE 13 kph)
- 10SM
11:15
Partly Cloudy
64°F / 18°C 46°F / 8°C 52% 30.24 in
(1024 mb)
NNE 5.8 mph
(NNE 9 kph)
- 10SM
10:55
Partly Cloudy
64°F / 18°C 48°F / 9°C 56% 30.24 in
(1024 mb)
NE 5.8 mph
(NE 9 kph)
- 10SM
10:35
Partly Cloudy
64°F / 18°C 46°F / 8°C 52% 30.24 in
(1024 mb)
NE 4.6 mph
(NE 7 kph)
- 10SM
10:15
Partly Cloudy
64°F / 18°C 50°F / 10°C 60% 30.27 in
(1025 mb)
NE 5.8 mph
(NE 9 kph)
- 10SM
09:55
Partly Cloudy
64°F / 18°C 46°F / 8°C 52% 30.27 in
(1025 mb)
NE 4.6 mph
(NE 7 kph)
- 10SM
09:35
Partly Cloudy
64°F / 18°C 50°F / 10°C 60% 30.27 in
(1025 mb)
NE 5.8 mph
(NE 9 kph)
- 10SM
09:15
Partly Cloudy
64°F / 18°C 48°F / 9°C 56% 30.24 in
(1024 mb)
NE 4.6 mph
(NE 7 kph)
- 10SM
08:55
Clear
66°F / 19°C 52°F / 11°C 60% 30.24 in
(1024 mb)
NE 4.6 mph
(NE 7 kph)
- 10SM
08:35
Clear
64°F / 18°C 52°F / 11°C 64% 30.24 in
(1024 mb)
N 4.6 mph
(N 7 kph)
- 10SM
08:15
Clear
63°F / 17°C 50°F / 10°C 64% 30.24 in
(1024 mb)
NNE 4.6 mph
(NNE 7 kph)
- 10SM
07:55
Clear
63°F / 17°C 50°F / 10°C 64% 30.24 in
(1024 mb)
Calm - 10SM
07:35
Clear
59°F / 15°C 50°F / 10°C 72% 30.24 in
(1024 mb)
Calm - 10SM
07:15
Clear
59°F / 15°C 50°F / 10°C 72% 30.24 in
(1024 mb)
Calm - 10SM
06:55
Partly Cloudy
55°F / 13°C 52°F / 11°C 88% 30.24 in
(1024 mb)
Calm - 10SM
06:35
Overcast
55°F / 13°C 52°F / 11°C 88% 30.24 in
(1024 mb)
Calm - 10SM
06:15
Mostly Cloudy
54°F / 12°C 50°F / 10°C 88% 30.24 in
(1024 mb)
Calm - 10SM
05:55
Partly Cloudy
54°F / 12°C 50°F / 10°C 88% 30.24 in
(1024 mb)
Calm - 10SM
05:35
Clear
54°F / 12°C 50°F / 10°C 88% 30.24 in
(1024 mb)
E 5.8 mph
(E 9 kph)
- 10SM
05:15
Mostly Cloudy
54°F / 12°C 50°F / 10°C 88% 30.21 in
(1023 mb)
NE 5.8 mph
(NE 9 kph)
- 10SM
04:55
Overcast
54°F / 12°C 50°F / 10°C 88% 30.21 in
(1023 mb)
N 4.6 mph
(N 7 kph)
- 10SM
04:35
Overcast
54°F / 12°C 50°F / 10°C 88% 30.21 in
(1023 mb)
NNW 5.8 mph
(NNW 9 kph)
- 10SM
04:15
Overcast
54°F / 12°C 50°F / 10°C 88% 30.24 in
(1024 mb)
Calm - 10SM
03:55
Mostly Cloudy
54°F / 12°C 50°F / 10°C 88% 30.24 in
(1024 mb)
Calm - 10SM
03:35
Clear
54°F / 12°C 50°F / 10°C 88% 30.21 in
(1023 mb)
Calm - 10SM
03:15
Clear
54°F / 12°C 50°F / 10°C 88% 30.21 in
(1023 mb)
NW 4.6 mph
(NW 7 kph)
- 10SM
02:55
Clear
54°F / 12°C 48°F / 9°C 82% 30.21 in
(1023 mb)
NNW 3.5 mph
(NNW 6 kph)
- 10SM
02:35
Clear
54°F / 12°C 50°F / 10°C 88% 30.21 in
(1023 mb)
Calm - 10SM
02:15
Partly Cloudy
55°F / 13°C 50°F / 10°C 82% 30.21 in
(1023 mb)
Calm - 10SM
01:55
Partly Cloudy
55°F / 13°C 50°F / 10°C 82% 30.21 in
(1023 mb)
Calm - 10SM
01:35
Partly Cloudy
55°F / 13°C 50°F / 10°C 82% 30.21 in
(1023 mb)
Calm - 10SM
01:15
Mostly Cloudy
55°F / 13°C 50°F / 10°C 82% 30.21 in
(1023 mb)
Calm - 10SM
00:55
Partly Cloudy
Rain
55°F / 13°C 50°F / 10°C 82% 30.24 in
(1024 mb)
ESE 3.5 mph
(ESE 6 kph)
- 10SM
00:35
Clear
54°F / 12°C 50°F / 10°C 88% 30.24 in
(1024 mb)
E 3.5 mph
(E 6 kph)
- 10SM
00:15
Clear
55°F / 13°C 50°F / 10°C 82% 30.24 in
(1024 mb)
Calm - 10SM
Time Weather Temperature Dewpoint Humidity Pressure Winds Precip Visibility


Weather for websites

WeatherForYou.com, LLC is not responsible for any damages or problems caused by this service. Current weather conditions are obtained from the closest station including government and personal stations which may have varying degrees of accuracy. Weather forecasts are derived from the NOAA NDFD. Like all things, this site belongs to Jesus Christ... He just trusts me to maintain it. If you have any questions or comments email webmaster@weatherforyou.com

Copyright © 2014, WeatherForYou.com LLC. All rights reserved.